• MPC Preparation (Info)

  • MPEC 2015-R61 : 2015 RN35

    The following Minor Planet Electronic Circular may be linked-to from your own Web pages, but must not otherwise be redistributed electronically.

    A form allowing access to any MPEC is at the bottom of this page.


    Read MPEC 2015-R60 Read MPEC 2015-R62


    M.P.E.C. 2015-R61                                Issued 2015 Sept. 12, 14:24 UT
    
         The Minor Planet Electronic Circulars contain information on unusual
             minor planets and routine data on comets.  They are published
        on behalf of Division F of the International Astronomical Union by the
              Minor Planet Center, Smithsonian Astrophysical Observatory,
                              Cambridge, MA 02138, U.S.A.
    
                 Prepared using the Tamkin Foundation Computer Network
    
                                  MPC@CFA.HARVARD.EDU
                URL https://www.minorplanetcenter.net/    ISSN 1523-6714
    
                                       2015 RN35
    
    Observations:
         K15R35N* C2015 09 09.51581 03 00 03.752+17 56 43.44         21.6 wLER061F51
         K15R35N  C2015 09 09.52758 03 00 08.624+17 57 05.15         21.2 wLER061F51
         K15R35N  C2015 09 09.53933 03 00 13.486+17 57 26.23         22.3 wLER061F51
         K15R35N _C2015 09 10.53994303 07 33.407+18 27 03.32         20.8 RtER061568
         K15R35N _C2015 09 10.54123603 07 33.961+18 27 05.61         21.1 RtER061568
         K15R35N _C2015 09 10.54258703 07 34.540+18 27 08.08         21.5 RtER061568
         K15R35N KC2015 09 12.36800303 21 33.67 +19 19 55.3          21.4 VuER061H21
         K15R35N KC2015 09 12.37266303 21 35.80 +19 20 03.3          21.3 VuER061H21
         K15R35N KC2015 09 12.37732303 21 37.91 +19 20 11.3          21.1 VuER061H21
         K15R35N KC2015 09 12.39012 03 21 44.93 +19 20 38.8          20.9 RoER061291
         K15R35N KC2015 09 12.39256 03 21 46.03 +19 20 42.9          21.2 RoER061291
         K15R35N KC2015 09 12.39499 03 21 47.13 +19 20 47.0          20.3 RoER061291
    
    Observer details:
    291 LPL/Spacewatch II.  Observer R. A. Mastaler.  1.8-m f/2.7 reflector + CCD.
    568 Mauna Kea.  Observers R. J. Wainscoat, D. Woodworth.  Measurers M. Micheli,
        R. J. Wainscoat.  3.6-m Canada-France-Hawaii Telescope + CCD.
    F51 Pan-STARRS 1, Haleakala.  Observers B. Gibson, T. Goggia, N. Primak,
        A. Schultz, M. Willman.  Measurers K. Chambers, S. Chastel, L. Denneau,
        H. Flewelling, M. Huber, E. Lilly, E. Magnier, R. Wainscoat, C. Waters,
        R. Weryk.  1.8-m Ritchey-Chretien + CCD.
    H21 Astronomical Research Observatory, Westfield.  Observers T. Linder,
        R. Holmes.  Measurers T. Linder, R. Holmes, L. Buzzi, S. Foglia,
        T. Vorobjov.  0.61-m f/4.0 astrograph + CCD, 0.76-m f/3.0 astrograph + CCD.
    
    Orbital elements:
    2015 RN35                                                Earth MOID = 0.0003 AU
    Epoch 2015 June 27.0 TT = JDT 2457200.5                 MPC
    M 287.08491              (2000.0)            P               Q
    n   0.55700383     Peri.  207.21669     +0.54872223     -0.83600175
    a   1.4629538      Node   209.50407     +0.76784294     +0.50503933
    e   0.3432930      Incl.    0.26013     +0.33063748     +0.21456084
    P   1.77           H   23.0           G   0.15           U   7
    Residuals in seconds of arc
    150909 F51  0.4+  0.1-    150910 568  0.2+  0.1-    150912 H21  0.3+  0.5-
    150909 F51  0.2+  0.2+    150910 568  0.2+  0.0     150912 291  0.4+  0.5+
    150909 F51  0.0   0.0     150912 H21  0.5+  0.4-    150912 291  0.2+  0.3+
    150910 568  0.2+  0.0     150912 H21  0.6+  0.5-    150912 291  0.0   0.2+
    
    Ephemeris:
    2015 RN35                a,e,i = 1.46, 0.34, 0                   q = 0.9607
    Date    TT    R. A. (2000) Decl.     Delta      r     Elong.  Phase     V
    2015 08 13    00 49 10.8 +06 07 46   0.3434  1.2466   126.0    41.1    22.8
    ...
    2015 08 28    01 46 31.0 +11 55 56   0.2473  1.1704   125.2    44.9    22.0
    ...
    2015 09 05    02 29 50.4 +15 42 07   0.2076  1.1315   121.8    49.3    21.7
    ...
    2015 09 11    03 10 59.1 +18 40 34   0.1843  1.1037   117.3    54.2    21.5
    2015 09 12    03 18 39.5 +19 09 37   0.1810  1.0992   116.4    55.1    21.5
    2015 09 13    03 26 34.3 +19 38 09   0.1779  1.0947   115.5    56.1    21.5
    ...
    2015 09 19    04 18 47.2 +22 09 01   0.1637  1.0689   108.9    62.8    21.4
    ...
    2015 09 27    05 36 55.2 +23 51 21   0.1567  1.0376    98.6    72.8    21.6
    ...
    2015 10 12    07 49 57.6 +21 04 20   0.1768  0.9912    82.6    87.2    22.3
    
    A. U. Tomatic                (C) Copyright 2015 MPC           M.P.E.C. 2015-R61
    

    Read MPEC 2015-R60 Read MPEC 2015-R62


    MPEC number:

    Enter an MPEC number in one of the following forms:

    • 1997-B01 (the full form)
    • J97B01 (the packed version of the full form)
    • B01 (the abbreviated form)